Camarillo, CA

9:14 AM PST on December 04, 2016 (GMT -0800)
Camarillo

Weather History for KCMA - December, 2012

Change the Weather History Date:

Thursday, December 6, 2012

  Actual Average Record
Temperature  
Mean Temperature 60 °F 54 °F  
Max Temperature 67 °F 67 °F 84 °F (1959)
Min Temperature 52 °F 42 °F 34 °F (2013)
Degree Days  
Heating Degree Days 5 11  
Month to date heating degree days 22 63  
Since 1 July heating degree days 249 395  
Cooling Degree Days 0 0  
Month to date cooling degree days 0 0  
Year to date cooling degree days 387 330  
Growing Degree Days 10 (Base 50)    
Moisture  
Dew Point 54 °F    
Average Humidity 83    
Maximum Humidity 93    
Minimum Humidity 73    
Precipitation  
Precipitation 0.00 in 0.04 in 3.40 in (1997)
Month to date precipitation 0.45 0.22  
Year to date precipitation 7.25 13.38  
Since 1 July precipitation 1.57  
Sea Level Pressure  
Sea Level Pressure 29.97 in    
Wind  
Wind Speed 3 mph (ENE)    
Max Wind Speed 10 mph    
Max Gust Speed 14 mph    
Visibility 6 miles    
Events      
T = Trace of Precipitation, MM = Missing Value Source: NWS Daily Summary

Daily Weather History Graph

Daily Weather History Graph

Search for Another Location

Airport or City:

Trip Planner

Search our weather history database for the weather conditions in past years. The results will help you decide how hot, cold, wet, or windy it might be!

Date:

Astronomy

Dec. 06, 2012 Rise Set
Actual Time 6:48 AM PST 4:46 PM PST
Civil Twilight 6:21 AM PST 5:14 PM PST
Nautical Twilight 5:50 AM PST 5:45 PM PST
Astronomical Twilight 5:19 AM PST 6:15 PM PST
Moon No Moon Rise 11:59 AM PST (12/6)
Length of Visible Light 10h 52m
Length of Day
9h 57m
Waning Gibbous, 48% of the Moon is Illuminated
Dec 6
Waning Gibbous
Dec 13
New
Dec 19
First Quarter
Dec 28
Full
Jan 4
Last Quarter

Hourly Weather History & Observations

Time (PST) Temp. Dew Point Humidity Pressure Visibility Wind Dir Wind Speed Gust Speed Precip Events Conditions
12:34 AM 55.4 °F 53.6 °F 94% 30.01 in 8.0 mi Calm Calm - N/A   Scattered Clouds
12:43 AM 55.4 °F 53.6 °F 94% 30.00 in 8.0 mi ENE 3.5 mph - N/A   Mostly Cloudy
12:55 AM 57.0 °F 54.0 °F 89% 30.03 in 9.0 mi Calm Calm - N/A   Overcast
1:11 AM 57.2 °F 53.6 °F 88% 30.00 in 9.0 mi Calm Calm - N/A   Overcast
1:29 AM 57.2 °F 53.6 °F 88% 30.00 in 9.0 mi ENE 5.8 mph - N/A   Overcast
1:55 AM 57.9 °F 54.0 °F 87% 30.02 in 8.0 mi ENE 3.5 mph - N/A   Overcast
2:25 AM 57.2 °F 55.4 °F 94% 29.99 in 7.0 mi ENE 3.5 mph - N/A   Overcast
2:55 AM 57.9 °F 54.0 °F 87% 30.01 in 8.0 mi East 4.6 mph - N/A   Overcast
3:55 AM 57.9 °F 55.0 °F 90% 30.00 in 7.0 mi ENE 5.8 mph - N/A   Overcast
4:55 AM 57.9 °F 55.0 °F 90% 29.98 in 4.0 mi NE 6.9 mph - N/A   Overcast
5:27 AM 57.2 °F 53.6 °F 88% 29.96 in 4.0 mi East 4.6 mph - N/A   Overcast
5:55 AM 57.0 °F 54.0 °F 89% 29.99 in 4.0 mi East 8.1 mph - N/A   Overcast
6:24 AM 55.4 °F 53.6 °F 94% 29.96 in 1.8 mi NE 8.1 mph - N/A   Overcast
6:32 AM 55.4 °F 53.6 °F 94% 29.96 in 1.2 mi NE 9.2 mph - N/A   Overcast
6:38 AM 55.4 °F 53.6 °F 94% 29.96 in 1.8 mi NE 5.8 mph - N/A   Overcast
6:45 AM 55.4 °F 53.6 °F 94% 29.96 in 2.5 mi ENE 6.9 mph - N/A   Overcast
6:55 AM 55.9 °F 53.1 °F 90% 29.99 in 3.0 mi ENE 6.9 mph - N/A   Overcast
7:10 AM 55.4 °F 53.6 °F 94% 29.97 in 2.0 mi NE 6.9 mph - N/A   Overcast
7:19 AM 55.4 °F 53.6 °F 94% 29.97 in 1.5 mi NE 8.1 mph - N/A   Overcast
7:22 AM 55.4 °F 53.6 °F 94% 29.97 in 2.0 mi NE 8.1 mph - N/A   Overcast
7:55 AM 55.0 °F 52.0 °F 89% 30.01 in 2.0 mi NE 6.9 mph - N/A   Overcast
8:55 AM 57.0 °F 53.1 °F 87% 30.01 in 2.0 mi ENE 4.6 mph - N/A   Overcast
9:02 AM 57.2 °F 53.6 °F 88% 29.99 in 5.0 mi ENE 4.6 mph - N/A   Overcast
9:40 AM 60.8 °F 55.4 °F 82% 29.99 in 5.0 mi Calm Calm - N/A   Haze
9:55 AM 61.0 °F 55.0 °F 81% 30.02 in 6.0 mi Calm Calm - N/A   Haze
10:55 AM 63.0 °F 57.0 °F 81% 30.01 in 7.0 mi Calm Calm - N/A   Mostly Cloudy
11:33 AM 64.4 °F 55.4 °F 73% 29.96 in 8.0 mi SSW 4.6 mph - N/A   Scattered Clouds
11:55 AM 64.9 °F 55.9 °F 73% 29.97 in 8.0 mi SW 5.8 mph - N/A   Partly Cloudy
12:55 PM 64.9 °F 57.0 °F 75% 29.94 in 7.0 mi SW 5.8 mph - N/A   Clear
1:55 PM 66.0 °F 57.0 °F 73% 29.92 in 7.0 mi WSW 4.6 mph - N/A   Clear
2:55 PM 66.0 °F 57.0 °F 73% 29.91 in 8.0 mi SSW 6.9 mph - N/A   Clear
3:55 PM 64.9 °F 55.9 °F 73% 29.91 in 9.0 mi SW 5.8 mph - N/A   Clear
4:55 PM 63.0 °F 55.9 °F 78% 29.91 in 9.0 mi Calm Calm - N/A   Clear
5:55 PM 62.1 °F 55.9 °F 80% 29.91 in 9.0 mi Calm Calm - N/A   Clear
6:55 PM 60.1 °F 55.0 °F 83% 29.93 in 8.0 mi Calm Calm - N/A   Clear
7:55 PM 57.9 °F 54.0 °F 87% 29.94 in 7.0 mi Calm Calm - N/A   Clear
8:55 PM 57.0 °F 53.1 °F 87% 29.95 in 5.0 mi Calm Calm - N/A   Clear
9:55 PM 55.0 °F 52.0 °F 89% 29.95 in 6.0 mi Calm Calm - N/A   Clear
10:55 PM 54.0 °F 51.1 °F 90% 29.94 in 5.0 mi Calm Calm - N/A   Clear
11:55 PM 53.1 °F 48.9 °F 86% 29.95 in 6.0 mi North 3.5 mph - N/A   Clear